Regional Weather Roundup
Issued by NWS Memphis, TN

Home | Current Version | Previous Version | Text Only | Print | Product List | Glossary On
Versions: 1 2 3 4 5 6 7 8 9 10 11 12 13 14 15 16 17 18 19 20 21 22 23 24 25 26 27 28 29 30 31 32 33 34 35 36 37 38 39 40 41 42 43 44 45 46 47 48 49 50
000
ASUS44 KMEG 252010
RWRMEG
MEMPHIS CWA HOURLY WEATHER ROUNDUP
NATIONAL WEATHER SERVICE MEMPHIS TN
300 PM CDT MON JUL 25 2016

...WEST TENNESSEE...

CITY           SKY/WX    TMP DP  RH WIND       PRES   REMARKS
MEMPHIS INTL   PTSUNNY   95  76  53 SW7       29.96F HX 108
NWS MEMPHIS      N/A     94 N/A N/A MISG        N/A
JACKSON        MOSUNNY   96  71  44 SW6G16    29.97F HX 103
LEXINGTON      SUNNY     97  68  38 SW9       29.97F HX 101
DYERSBURG      PTSUNNY  N/A N/A N/A MISG        N/A  THUNDER
UNION CITY     MOSUNNY   93  79  62 W9        29.95F HX 110
PARIS          SUNNY     91  75  59 SW7       29.99S HX 102


...EASTERN ARKANSAS...

CITY           SKY/WX    TMP DP  RH WIND       PRES   REMARKS
JONESBORO      MOSUNNY   91  75  59 W8        29.96F HX 101
WEST MEMPHIS   MOSUNNY   92  76  59 W6        29.94F HX 104
BATESVILLE     PTSUNNY   91  73  55 SE5       29.96F HX 100
NEWPORT        MOSUNNY   93  78  61 E6        29.97F HX 108
WALNUT RIDGE   MOSUNNY   91  75  59 E7        29.94F HX 102
BLYTHEVILLE    PTSUNNY   85  77  77 NW12      29.98R HX  95
SEARCY         SUNNY     96  76  52 E6        29.97F HX 109
STUTTGART      PTSUNNY   91  72  52 SE3       29.96F HX  98
PINE BLUFF     SUNNY     93  71  48 E6        29.95F HX 100
MONTICELLO     MOSUNNY   93  76  57 E6        29.94F HX 105


...NORTH MISSISSIPPI...

CITY           SKY/WX    TMP DP  RH WIND       PRES   REMARKS
TUPELO           N/A     94  66  39 SE12      29.98F HX  97
OXFORD         SUNNY     91  66  43 S7        29.99F HX  94
BATESVILLE     SUNNY     94  69  45 SE6       29.97F HX  99
OLIVE BRANCH   MOSUNNY  N/A N/A N/A S12       29.96F
TUNICA         SUNNY     91  77  62 SE5       29.96F HX 105
CLARKSDALE     MOSUNNY   95  77  55 VRB6      29.96F HX 109
CORINTH        SUNNY     93  68  43 SW9       29.98F HX  97
GREENWOOD      MOSUNNY   95  67  39 E7        29.95F HX  99
COLUMBUS       SUNNY     95  78  59 S9        29.97F HX 111
GOLDEN TRIANGL MOSUNNY   93  70  46 SE9       29.97F HX  99


...SOUTHEAST MISSOURI...

CITY           SKY/WX    TMP DP  RH WIND       PRES   REMARKS
KENNETT        MOSUNNY   82  77  83 N6        29.96F HX  91
WEST PLAINS    SUNNY     89  69  51 W7        30.03F HX  93
POPLAR BLUFF   LGT RAIN  76  72  87 NE5       29.98F
CAPE GIRARDEAU CLOUDY    76  72  87 CALM      29.98F


...NORTHWEST ALABAMA...

CITY           SKY/WX    TMP DP  RH WIND       PRES   REMARKS
MUSCLE SHOALS  SUNNY     94  69  44 SW9       30.00F HX  99


...MIDDLE TENNESSEE...

CITY           SKY/WX    TMP DP  RH WIND       PRES   REMARKS
NASHVILLE      LGT RAIN  88  72  58 W3        30.00F HX  94
CLARKSVILLE    CLOUDY    90  70  51 SW10      29.98F HX  95
COLUMBIA       SUNNY     99  66  34 S9        29.98F HX 102


...WESTERN KENTUCKY...

CITY           SKY/WX    TMP DP  RH WIND       PRES   REMARKS
PADUCAH        CLOUDY    87  73  62 SW5       29.97F HX  94
FORT CAMPBELL  MOSUNNY   90  75  60 SW12      29.98S HX 100


...CENTRAL ARKANSAS...

CITY           SKY/WX    TMP DP  RH WIND       PRES   REMARKS
LITTLE ROCK    MOSUNNY   96  73  47 SE8       29.95F HX 105


SKY/WX REPORTED AS FAIR MEANS FEW OR NO CLOUDS BELOW
12 THOUSAND FEET.





USA.gov is the U.S. government's official web portal to all federal, state and local government web resources and services.